Flood From: 18-02-2018 10:00 Until: 19-02-2018 06:00 warning for: Flood Level: Yellow info button

Although rather usual in this region, locally or potentially dangerous phenomena are expected. (such as local winds, summer thunderstorms, rising streams or high waves) Be aware and pay attention to the latest weather updates, especially if you carry out activities exposed to weather or close to a stream or shoreline. 


Meteo18 Weather Cam more information Meteo18 Weather Cam


Thunder radar more information blitzortung!


Rain radar more information rain snow radar


Visit our other weather sites:

Template documentation
and downloads

And another site



Weather Underground History page Text

Daily Summary for August 25, 2017 Units:  English    Metric   Both
« Previous Day
Next Day »
Daily Weekly Monthly Yearly Custom
  High: Low: Average:
Temperature: TemperatureC °F 17.1 °F 22.7 °F
Dew Point: DewpointC °F 15.6 °F 18.2 °F
Humidity: Humidity % 58 % 76 %
Wind Speed: WindSpeedKMH mph 0.0 mph 4 mph
Wind Gust: WindSpeedGustKMH mph - -
Wind:- - SSW
Pressure: PressurehPa in 1015.5 in -
Precipitation: 1.3 in    
Historical Graphs
 
 
Tabular Data for August 25, 2017
Time Temperature Dew Point Pressure Wind Wind Speed Wind Gust Humidity Rainfall Rate (Hourly)
TemperatureC °F DewpointC °F PressurehPa in Calm     Humidity % HourlyPrecipMM in
00:02 21.8 °F 17.2 °F 1017.2 in NE 9.7 mph 16.1 mph 75 % 0.0 in
00:07 21.7 °F 17.1 °F 1017.2 in NE 6.4 mph 14.5 mph 75 % 0.0 in
00:12 21.7 °F 17.3 °F 1017.2 in NNE 9.7 mph 14.5 mph 76 % 0.0 in
00:17 21.6 °F 17.2 °F 1017.2 in NNE 12.9 mph 14.5 mph 76 % 0.0 in
00:22 21.5 °F 17.1 °F 1017.2 in NE 4.8 mph 14.5 mph 76 % 0.0 in
00:32 21.3 °F 16.9 °F 1017.2 in NE 6.4 mph 14.5 mph 76 % 0.0 in
00:37 21.3 °F 17.1 °F 1017.2 in NNE 8.0 mph 14.5 mph 77 % 0.0 in
00:42 21.3 °F 17.1 °F 1016.8 in NE 8.0 mph 11.3 mph 77 % 0.0 in
00:47 21.3 °F 17.1 °F 1017.2 in NE 8.0 mph 11.3 mph 77 % 0.0 in
00:52 21.2 °F 17.0 °F 1016.8 in NE 6.4 mph 12.9 mph 77 % 0.0 in
00:57 21.1 °F 16.9 °F 1016.8 in NE 8.0 mph 12.9 mph 77 % 0.0 in
01:02 21.0 °F 16.8 °F 1016.8 in NE 1.6 mph 12.9 mph 77 % 0.0 in
01:07 20.9 °F 16.9 °F 1016.8 in East 1.6 mph 9.7 mph 78 % 0.0 in
01:12 20.7 °F 16.7 °F 1016.8 in NNW 1.6 mph 9.7 mph 78 % 0.0 in
01:22 20.6 °F 16.8 °F 1016.8 in North 3.2 mph 6.4 mph 79 % 0.0 in
01:27 20.4 °F 16.6 °F 1016.8 in Calm   6.4 mph 79 % 0.0 in
01:32 20.3 °F 16.7 °F 1016.8 in North 4.8 mph 6.4 mph 80 % 0.0 in
01:37 20.2 °F 16.6 °F 1016.8 in Calm   4.8 mph 80 % 0.0 in
01:42 20.1 °F 16.7 °F 1016.8 in North 3.2 mph 4.8 mph 81 % 0.0 in
01:47 20.1 °F 16.7 °F 1016.8 in North 1.6 mph 4.8 mph 81 % 0.0 in
01:52 20.1 °F 16.5 °F 1016.8 in North 3.2 mph 4.8 mph 80 % 0.0 in
02:02 20.1 °F 16.5 °F 1016.8 in Calm   8.0 mph 80 % 0.0 in
02:12 20.0 °F 16.6 °F 1016.5 in NE 1.6 mph 8.0 mph 81 % 0.0 in
02:22 19.8 °F 16.4 °F 1016.5 in NNE 1.6 mph 4.8 mph 81 % 0.0 in
02:27 19.7 °F 16.3 °F 1016.5 in Calm   4.8 mph 81 % 0.0 in
02:32 19.6 °F 16.4 °F 1016.5 in Calm   4.8 mph 82 % 0.0 in
02:37 19.6 °F 16.4 °F 1016.5 in NNW 3.2 mph 3.2 mph 82 % 0.0 in
02:42 19.6 °F 16.4 °F 1016.5 in NNE 3.2 mph 3.2 mph 82 % 0.0 in
02:47 19.6 °F 16.4 °F 1016.5 in NNE 1.6 mph 4.8 mph 82 % 0.0 in
02:52 19.6 °F 16.4 °F 1016.5 in North 1.6 mph 4.8 mph 82 % 0.0 in
02:57 19.5 °F 16.3 °F 1016.5 in Calm   4.8 mph 82 % 0.0 in
03:02 19.4 °F 16.2 °F 1016.5 in North 1.6 mph 4.8 mph 82 % 0.0 in
03:12 19.1 °F 16.1 °F 1016.5 in Calm   3.2 mph 83 % 0.0 in
03:17 19.1 °F 16.1 °F 1016.5 in Calm   3.2 mph 83 % 0.0 in
03:22 19.1 °F 16.1 °F 1016.5 in NNE 1.6 mph 3.2 mph 83 % 0.0 in
03:27 19.0 °F 16.0 °F 1016.5 in NNE 1.6 mph 3.2 mph 83 % 0.0 in
03:32 18.9 °F 16.1 °F 1016.5 in Calm   3.2 mph 84 % 0.0 in
03:37 19.1 °F 16.3 °F 1016.1 in NE 4.8 mph 4.8 mph 84 % 0.0 in
03:42 19.3 °F 16.3 °F 1016.1 in NNE 1.6 mph 4.8 mph 83 % 0.0 in
03:52 19.1 °F 16.1 °F 1016.1 in Calm   6.4 mph 83 % 0.0 in
03:57 19.1 °F 16.1 °F 1016.1 in NE 3.2 mph 3.2 mph 83 % 0.0 in
04:02 19.0 °F 16.0 °F 1016.1 in Calm   3.2 mph 83 % 0.0 in
04:12 18.9 °F 16.1 °F 1016.1 in Calm   4.8 mph 84 % 0.0 in
04:17 18.9 °F 16.1 °F 1016.1 in North 1.6 mph 1.6 mph 84 % 0.0 in
04:22 18.7 °F 15.9 °F 1016.1 in North 1.6 mph 1.6 mph 84 % 0.0 in
04:27 18.7 °F 16.1 °F 1016.1 in NNE 1.6 mph 1.6 mph 85 % 0.0 in
04:32 18.7 °F 16.1 °F 1016.1 in Calm   1.6 mph 85 % 0.0 in
04:37 18.5 °F 15.9 °F 1016.1 in North 1.6 mph 3.2 mph 85 % 0.0 in
04:42 18.4 °F 16.0 °F 1016.1 in NW 1.6 mph 3.2 mph 86 % 0.0 in
04:47 18.4 °F 15.8 °F 1016.1 in WNW 1.6 mph 3.2 mph 85 % 0.0 in
04:52 18.3 °F 16.1 °F 1016.1 in NW 1.6 mph 3.2 mph 87 % 0.0 in
05:02 18.3 °F 16.1 °F 1016.1 in NW 1.6 mph 3.2 mph 87 % 0.0 in
05:07 18.2 °F 16.0 °F 1016.1 in WNW 1.6 mph 3.2 mph 87 % 0.0 in
05:12 18.3 °F 16.1 °F 1015.8 in NNW 1.6 mph 3.2 mph 87 % 0.0 in
05:17 18.4 °F 16.2 °F 1016.1 in Calm   3.2 mph 87 % 0.0 in
05:22 18.3 °F 15.9 °F 1016.1 in Calm   3.2 mph 86 % 0.0 in
05:32 18.2 °F 16.0 °F 1015.8 in Calm   3.2 mph 87 % 0.0 in
05:42 17.9 °F 15.7 °F 1015.8 in Calm   1.6 mph 87 % 0.0 in
05:52 17.9 °F 15.9 °F 1015.8 in Calm   1.6 mph 88 % 0.0 in
06:02 17.7 °F 15.7 °F 1015.8 in Calm   1.6 mph 88 % 0.0 in
06:07 17.7 °F 15.9 °F 1016.1 in Calm   3.2 mph 89 % 0.0 in
06:12 17.7 °F 15.9 °F 1015.8 in Calm   3.2 mph 89 % 0.0 in
06:17 17.7 °F 15.9 °F 1016.1 in Calm   1.6 mph 89 % 0.0 in
06:22 17.6 °F 15.9 °F 1016.1 in Calm   1.6 mph 90 % 0.0 in
06:32 17.3 °F 15.6 °F 1016.1 in Calm   3.2 mph 90 % 0.0 in
06:37 17.3 °F 15.8 °F 1016.1 in Calm   3.2 mph 91 % 0.0 in
06:42 17.2 °F 15.7 °F 1016.1 in Calm     91 % 0.0 in
06:52 17.2 °F 15.9 °F 1016.5 in Calm   1.6 mph 92 % 0.0 in
06:57 17.1 °F 15.6 °F 1016.1 in Calm   1.6 mph 91 % 0.0 in
07:02 17.1 °F 15.8 °F 1016.1 in Calm     92 % 0.0 in
07:12 17.1 °F 15.6 °F 1016.1 in Calm     91 % 0.0 in
07:17 17.1 °F 15.6 °F 1016.1 in Calm   1.6 mph 91 % 0.0 in
07:22 17.1 °F 15.8 °F 1016.1 in Calm   1.6 mph 92 % 0.0 in
07:32 17.2 °F 15.9 °F 1016.5 in Calm   3.2 mph 92 % 0.0 in
07:42 17.7 °F 16.4 °F 1016.5 in Calm     92 % 0.0 in
07:52 18.1 °F 16.3 °F 1016.8 in Calm     89 % 0.0 in
08:02 18.3 °F 16.6 °F 1016.5 in Calm     90 % 0.0 in
08:07 18.4 °F 16.6 °F 1016.5 in Calm   1.6 mph 89 % 0.0 in
08:12 18.4 °F 16.6 °F 1016.5 in Calm   1.6 mph 89 % 0.0 in
08:17 18.6 °F 16.8 °F 1016.5 in Calm   1.6 mph 89 % 0.0 in
08:22 18.7 °F 16.8 °F 1016.5 in Calm   1.6 mph 89 % 0.0 in
08:32 18.9 °F 17.0 °F 1016.5 in Calm     89 % 0.0 in
08:37 19.1 °F 17.1 °F 1016.5 in Calm     88 % 0.0 in
08:47 19.1 °F 17.1 °F 1016.8 in Calm   1.6 mph 88 % 0.0 in
08:52 19.1 °F 17.2 °F 1016.8 in SW 1.6 mph 1.6 mph 89 % 0.0 in
09:02 19.2 °F 17.2 °F 1016.8 in SSE 1.6 mph 3.2 mph 88 % 0.0 in
09:07 19.3 °F 17.4 °F 1016.5 in Calm   6.4 mph 89 % 0.0 in
09:12 19.2 °F 17.5 °F 1016.1 in East 1.6 mph 6.4 mph 90 % 0.0 in
09:17 19.1 °F 17.4 °F 1016.1 in Calm   4.8 mph 90 % 1.3 in
09:27 19.1 °F 17.6 °F 1016.1 in Calm   3.2 mph 91 % 1.3 in
09:32 19.1 °F 17.8 °F 1016.1 in Calm   3.2 mph 92 % 1.3 in
09:37 19.0 °F 17.7 °F 1016.5 in West 1.6 mph 3.2 mph 92 % 1.3 in
09:47 19.1 °F 17.9 °F 1016.1 in Calm   3.2 mph 93 % 1.3 in
09:52 19.2 °F 18.0 °F 1016.1 in ENE 1.6 mph 3.2 mph 93 % 1.3 in
10:02 19.3 °F 18.0 °F 1016.5 in Calm   1.6 mph 92 % 1.3 in
10:12 20.0 °F 18.7 °F 1016.5 in Calm   3.2 mph 92 % 1.3 in
10:17 20.6 °F 19.4 °F 1016.5 in Calm   1.6 mph 93 % 0.0 in
10:22 20.9 °F 19.2 °F 1016.8 in Calm   1.6 mph 90 % 0.0 in
10:32 20.9 °F 19.0 °F 1017.2 in SW 3.2 mph 3.2 mph 89 % 0.0 in
10:42 20.9 °F 19.2 °F 1016.8 in SSW 1.6 mph 6.4 mph 90 % 0.0 in
10:52 21.7 °F 19.8 °F 1016.8 in SSW 3.2 mph 6.4 mph 89 % 0.0 in
10:57 22.1 °F 19.6 °F 1016.8 in SSE 6.4 mph 6.4 mph 86 % 0.0 in
11:02 22.4 °F 19.8 °F 1016.8 in SSW 6.4 mph 6.4 mph 85 % 0.0 in
11:12 23.2 °F 20.2 °F 1016.8 in SSW 1.6 mph 9.7 mph 83 % 0.0 in
11:17 23.7 °F 20.6 °F 1016.8 in Calm   9.7 mph 83 % 0.0 in
11:22 24.1 °F 20.2 °F 1016.8 in Calm   9.7 mph 79 % 0.0 in
11:32 25.0 °F 20.3 °F 1016.8 in SW 9.7 mph 9.7 mph 75 % 0.0 in
11:42 25.3 °F 19.7 °F 1016.8 in WSW 9.7 mph 11.3 mph 71 % 0.0 in
11:52 25.4 °F 19.8 °F 1016.8 in WSW 9.7 mph 16.1 mph 71 % 0.0 in
12:02 25.7 °F 19.8 °F 1016.8 in WNW 4.8 mph 19.3 mph 70 % 0.0 in
12:07 25.7 °F 19.8 °F 1016.8 in WSW 9.7 mph 16.1 mph 70 % 0.0 in
12:12 25.8 °F 20.1 °F 1016.8 in WSW 4.8 mph 16.1 mph 71 % 0.0 in
12:17 26.0 °F 19.9 °F 1016.8 in SW 9.7 mph 17.7 mph 69 % 0.0 in
12:22 25.8 °F 20.1 °F 1016.8 in SW 11.3 mph 17.7 mph 71 % 0.0 in
12:27 26.0 °F 19.9 °F 1016.8 in West 8.0 mph 17.7 mph 69 % 0.0 in
12:32 26.3 °F 20.4 °F 1016.5 in SW 17.7 mph 17.7 mph 70 % 0.0 in
12:37 26.5 °F 20.6 °F 1016.5 in NW 8.0 mph 17.7 mph 70 % 0.0 in
12:47 26.4 °F 20.5 °F 1016.5 in SW 6.4 mph 17.7 mph 70 % 0.0 in
12:52 26.6 °F 20.4 °F 1016.5 in WSW 6.4 mph 17.7 mph 69 % 0.0 in
12:57 26.7 °F 20.8 °F 1016.5 in West 4.8 mph 17.7 mph 70 % 0.0 in
13:02 26.7 °F 20.1 °F 1016.5 in SW 6.4 mph 17.7 mph 67 % 0.0 in
13:12 26.9 °F 20.5 °F 1016.5 in West 11.3 mph 17.7 mph 68 % 0.0 in
13:17 26.9 °F 20.3 °F 1016.5 in South 19.3 mph 24.1 mph 67 % 0.0 in
13:22 27.1 °F 20.4 °F 1016.5 in West 3.2 mph 24.1 mph 67 % 0.0 in
13:32 27.3 °F 20.4 °F 1016.1 in West 9.7 mph 22.5 mph 66 % 0.0 in
13:42 27.1 °F 20.2 °F 1016.5 in West 11.3 mph 17.7 mph 66 % 0.0 in
13:52 27.8 °F 20.6 °F 1016.1 in West 8.0 mph 19.3 mph 65 % 0.0 in
14:02 28.1 °F 20.9 °F 1016.1 in SSW 16.1 mph 20.9 mph 65 % 0.0 in
14:07 28.3 °F 20.8 °F 1016.1 in WSW 14.5 mph 19.3 mph 64 % 0.0 in
14:12 28.2 °F 20.5 °F 1016.1 in West 14.5 mph 19.3 mph 63 % 0.0 in
14:17 28.1 °F 20.6 °F 1016.1 in West 6.4 mph 22.5 mph 64 % 0.0 in
14:22 28.3 °F 20.1 °F 1016.1 in West 6.4 mph 22.5 mph 61 % 0.0 in
14:32 28.2 °F 20.2 °F 1016.1 in SSW 4.8 mph 22.5 mph 62 % 0.0 in
14:37 28.6 °F 20.3 °F 1016.1 in WSW 12.9 mph 19.3 mph 61 % 0.0 in
14:42 28.6 °F 20.1 °F 1016.1 in SW 11.3 mph 19.3 mph 60 % 0.0 in
14:52 28.2 °F 20.0 °F 1016.1 in WSW 9.7 mph 19.3 mph 61 % 0.0 in
15:02 28.4 °F 20.4 °F 1016.1 in WNW 14.5 mph 19.3 mph 62 % 0.0 in
15:07 28.4 °F 19.6 °F 1016.1 in SW 9.7 mph 19.3 mph 59 % 0.0 in
15:12 28.3 °F 19.8 °F 1016.1 in WSW 4.8 mph 19.3 mph 60 % 0.0 in
15:17 28.6 °F 20.3 °F 1015.8 in WSW 12.9 mph 19.3 mph 61 % 0.0 in
15:32 28.6 °F 19.8 °F 1015.8 in West 9.7 mph 19.3 mph 59 % 0.0 in
15:42 28.9 °F 19.8 °F 1015.8 in WNW 9.7 mph 17.7 mph 58 % 0.0 in
15:47 28.8 °F 20.0 °F 1015.8 in WSW 12.9 mph 19.3 mph 59 % 0.0 in
15:52 28.8 °F 20.0 °F 1015.8 in SW 8.0 mph 19.3 mph 59 % 0.0 in
16:02 29.0 °F 19.9 °F 1015.5 in WSW 8.0 mph 20.9 mph 58 % 0.0 in
16:12 28.5 °F 19.7 °F 1015.5 in West 3.2 mph 22.5 mph 59 % 0.0 in
16:17 28.7 °F 19.9 °F 1015.5 in WNW 6.4 mph 17.7 mph 59 % 0.0 in
16:22 28.9 °F 19.8 °F 1015.5 in SW 8.0 mph 17.7 mph 58 % 0.0 in
16:32 28.6 °F 20.1 °F 1015.5 in WSW 11.3 mph 19.3 mph 60 % 0.0 in
16:42 28.4 °F 19.9 °F 1015.5 in WSW 12.9 mph 19.3 mph 60 % 0.0 in
16:52 28.8 °F 20.0 °F 1015.5 in West 14.5 mph 20.9 mph 59 % 0.0 in
17:02 28.7 °F 19.9 °F 1015.5 in WSW 14.5 mph 30.6 mph 59 % 0.0 in
17:07 28.6 °F 20.1 °F 1015.5 in WSW 17.7 mph 24.1 mph 60 % 0.0 in
17:12 28.3 °F 19.5 °F 1015.5 in WSW 16.1 mph 24.1 mph 59 % 0.0 in
17:17 28.3 °F 19.5 °F 1015.5 in WSW 9.7 mph 22.5 mph 59 % 0.0 in
17:22 28.4 °F 19.6 °F 1015.5 in WSW 9.7 mph 22.5 mph 59 % 0.0 in
17:27 28.6 °F 19.8 °F 1015.5 in WSW 9.7 mph 19.3 mph 59 % 0.0 in
17:32 28.5 °F 19.4 °F 1015.5 in West 11.3 mph 19.3 mph 58 % 0.0 in
17:37 28.3 °F 19.2 °F 1015.5 in SW 8.0 mph 22.5 mph 58 % 0.0 in
17:42 28.1 °F 19.3 °F 1015.5 in WSW 12.9 mph 22.5 mph 59 % 0.0 in
17:52 27.8 °F 19.3 °F 1015.5 in WSW 11.3 mph 22.5 mph 60 % 0.0 in
17:57 27.8 °F 19.6 °F 1015.5 in West 6.4 mph 14.5 mph 61 % 0.0 in
18:02 27.7 °F 19.8 °F 1015.5 in SW 4.8 mph 14.5 mph 62 % 0.0 in
18:12 27.5 °F 19.6 °F 1015.5 in WSW 9.7 mph 20.9 mph 62 % 0.0 in
18:17 27.4 °F 19.7 °F 1015.5 in West 9.7 mph 20.9 mph 63 % 0.0 in
18:22 27.5 °F 19.8 °F 1015.5 in SW 9.7 mph 17.7 mph 63 % 0.0 in
18:32 27.6 °F 19.9 °F 1015.5 in West 11.3 mph 17.7 mph 63 % 0.0 in
18:37 27.8 °F 19.8 °F 1015.5 in SW 9.7 mph 17.7 mph 62 % 0.0 in
18:42 27.7 °F 20.0 °F 1015.5 in WSW 6.4 mph 17.7 mph 63 % 0.0 in
18:47 27.5 °F 19.8 °F 1015.5 in WSW 8.0 mph 17.7 mph 63 % 0.0 in
18:57 27.3 °F 19.6 °F 1015.5 in West 4.8 mph 19.3 mph 63 % 0.0 in
19:02 27.3 °F 19.6 °F 1015.5 in WSW 9.7 mph 19.3 mph 63 % 0.0 in
19:12 27.2 °F 19.8 °F 1015.5 in SSW 3.2 mph 19.3 mph 64 % 0.0 in
19:17 27.1 °F 19.7 °F 1015.5 in SW 8.0 mph 16.1 mph 64 % 0.0 in
19:22 27.0 °F 19.9 °F 1015.5 in SW 4.8 mph 16.1 mph 65 % 0.0 in
19:32 27.0 °F 19.9 °F 1015.5 in SW 3.2 mph 14.5 mph 65 % 0.0 in
19:37 26.9 °F 19.8 °F 1015.5 in SSW 4.8 mph 14.5 mph 65 % 0.0 in
19:42 26.9 °F 19.8 °F 1015.8 in WSW 4.8 mph 14.5 mph 65 % 0.0 in
19:52 26.8 °F 19.7 °F 1015.8 in WSW 1.6 mph 11.3 mph 65 % 0.0 in
19:57 26.8 °F 19.7 °F 1015.8 in WSW 1.6 mph 8.0 mph 65 % 0.0 in
20:02 26.7 °F 19.8 °F 1015.8 in WSW 3.2 mph 8.0 mph 66 % 0.0 in
20:12 26.3 °F 19.7 °F 1015.8 in Calm   6.4 mph 67 % 0.0 in
20:17 26.2 °F 19.8 °F 1015.8 in Calm   3.2 mph 68 % 0.0 in
20:22 26.1 °F 19.7 °F 1015.8 in Calm   3.2 mph 68 % 0.0 in
20:32 25.7 °F 19.8 °F 1016.1 in Calm   1.6 mph 70 % 0.0 in
20:37 25.5 °F 19.6 °F 1016.1 in Calm   1.6 mph 70 % 0.0 in
20:42 25.2 °F 19.6 °F 1016.1 in Calm   1.6 mph 71 % 0.0 in
20:47 25.0 °F 19.6 °F 1016.1 in Calm     72 % 0.0 in
20:52 24.7 °F 19.5 °F 1016.1 in Calm     73 % 0.0 in
20:57 24.4 °F 19.5 °F 1016.1 in Calm     74 % 0.0 in
21:02 24.2 °F 19.5 °F 1016.1 in Calm     75 % 0.0 in
21:12 23.7 °F 19.4 °F 1016.1 in Calm     77 % 0.0 in
21:17 23.6 °F 19.5 °F 1016.5 in Calm     78 % 0.0 in
21:22 23.4 °F 19.3 °F 1016.5 in Calm     78 % 0.0 in
21:32 23.3 °F 19.2 °F 1016.5 in Calm     78 % 0.0 in
21:42 23.1 °F 19.1 °F 1016.5 in Calm     78 % 0.0 in
21:52 22.8 °F 18.8 °F 1016.5 in Calm     78 % 0.0 in
21:57 22.6 °F 19.0 °F 1016.8 in Calm     80 % 0.0 in
22:02 22.4 °F 18.8 °F 1016.8 in Calm     80 % 0.0 in
22:12 21.9 °F 18.7 °F 1016.8 in Calm     82 % 0.0 in
22:17 21.7 °F 18.7 °F 1016.8 in Calm     83 % 0.0 in
22:22 21.6 °F 18.6 °F 1016.8 in Calm     83 % 0.0 in
22:27 21.6 °F 18.8 °F 1016.8 in Calm     84 % 0.0 in
22:32 21.4 °F 18.4 °F 1016.8 in Calm     83 % 0.0 in
22:42 21.7 °F 18.5 °F 1016.8 in Calm     82 % 0.0 in
22:52 21.4 °F 18.4 °F 1016.8 in Calm     83 % 0.0 in
22:57 21.2 °F 18.4 °F 1016.8 in Calm     84 % 0.0 in
23:07 21.3 °F 18.3 °F 1017.2 in Calm     83 % 0.0 in
23:12 21.2 °F 18.2 °F 1017.2 in Calm     83 % 0.0 in
23:17 21.1 °F 18.3 °F 1017.2 in Calm     84 % 0.0 in
23:22 20.8 °F 18.0 °F 1017.2 in Calm     84 % 0.0 in
23:27 20.6 °F 18.0 °F 1017.2 in Calm     85 % 0.0 in
23:32 20.4 °F 18.0 °F 1017.2 in Calm     86 % 0.0 in
23:37 20.4 °F 18.2 °F 1017.2 in Calm     87 % 0.0 in
23:42 20.3 °F 18.1 °F 1017.2 in Calm     87 % 0.0 in
23:52 20.1 °F 17.9 °F 1017.2 in Calm     87 % 0.0 in
Meteo18
Compliments of Weather Underground - 4 mb

Script developed by  Jim McMurry - jmcmurry@mwt.net Adapted for the template by  Wim van der Kuil - Leuven-Template.eu

You find our weather info also at:

European Weather Network

Weather Underground

Equipment we use:

Weather-station
Davis Vue

Weather-program
Meteobridge

Weather-server
Raspberry PI 2 B+

Provider
1 and 1

Davis Vue

Meteobridge

Raspberry PI 2 B+

1 and 1